Fryeburg, ME

9:22 AM EDT on June 28, 2017 (GMT -0400)
Eastern Slopes Regional

Weather History for KIZG - August, 2014

Change the Weather History Date:

Monday, August 11, 2014

  Actual Average Record
Temperature  
Mean Temperature 68 °F -  
Max Temperature 86 °F 80 °F 96 °F (2016)
Min Temperature 53 °F 54 °F 46 °F (1996)
Cooling Degree Days 4    
Growing Degree Days 18 (Base 50)    
Moisture  
Dew Point 57 °F    
Average Humidity 78    
Maximum Humidity 97    
Minimum Humidity 38    
Precipitation  
Precipitation 0.00 in - - ()
Sea Level Pressure  
Sea Level Pressure 30.14 in    
Wind  
Wind Speed 1 mph (ESE)    
Max Wind Speed 7 mph    
Max Gust Speed -    
Visibility 8 miles    
Events      
Averages and records for this station are not official NWS values.
T = Trace of Precipitation, MM = Missing Value Source: NWS Daily Summary

Daily Weather History Graph

Daily Weather History Graph

Search for Another Location

Airport or City:

Trip Planner

Search our weather history database for the weather conditions in past years. The results will help you decide how hot, cold, wet, or windy it might be!

Date:

Astronomy

Aug. 11, 2014 Rise Set
Actual Time 5:43 AM EDT 7:54 PM EDT
Civil Twilight 5:11 AM EDT 8:25 PM EDT
Nautical Twilight 4:32 AM EDT 9:04 PM EDT
Astronomical Twilight 3:48 AM EDT 9:47 PM EDT
Moon 8:15 PM EDT (8/11) 6:48 AM EDT (8/11)
Length of Visible Light 15h 14m
Length of Day
14h 11m
Full, 99% of the Moon is Illuminated
Aug 11
Full
Aug 17
Last Quarter
Aug 25
New
Sep 2
First Quarter
Sep 8
Full

Hourly Weather History & Observations

Time (EDT) Temp. Heat Index Dew Point Humidity Pressure Visibility Wind Dir Wind Speed Gust Speed Precip Events Conditions
12:54 AM 60.1 °F - 57.0 °F 90% 30.15 in 10.0 mi Calm Calm - N/A   Clear
1:54 AM 57.0 °F - 55.0 °F 93% 30.15 in 10.0 mi Calm Calm - N/A   Clear
2:54 AM 55.9 °F - 55.0 °F 97% 30.15 in 10.0 mi Calm Calm - N/A   Clear
3:54 AM 55.0 °F - 53.1 °F 93% 30.15 in 10.0 mi Calm Calm - N/A   Clear
4:54 AM 54.0 °F - 53.1 °F 97% 30.15 in 2.5 mi Calm Calm - N/A   Clear
5:05 AM 54.0 °F - 53.1 °F 97% 30.15 in 4.0 mi Calm Calm - N/A   Clear
5:17 AM 54.0 °F - 53.1 °F 97% 30.15 in 1.8 mi Calm Calm - N/A   Clear
5:24 AM 54.0 °F - 53.1 °F 97% 30.15 in 1.0 mi Calm Calm - N/A   Mist
5:31 AM 53.1 °F - 52.0 °F 96% 30.15 in 1.5 mi Calm Calm - N/A   Partly Cloudy
5:36 AM 53.1 °F - 52.0 °F 96% 30.16 in 3.0 mi Calm Calm - N/A   Clear
5:47 AM 53.1 °F - 52.0 °F 96% 30.16 in 1.8 mi Calm Calm - N/A   Clear
5:54 AM 53.1 °F - 51.1 °F 93% 30.16 in 2.0 mi Calm Calm - N/A   Clear
6:06 AM 53.1 °F - 52.0 °F 96% 30.16 in 3.0 mi Calm Calm - N/A   Clear
6:54 AM 57.0 °F - 55.0 °F 93% 30.16 in 10.0 mi Calm Calm - N/A   Clear
7:54 AM 64.9 °F - 59.0 °F 81% 30.16 in 10.0 mi Calm Calm - N/A   Clear
8:54 AM 68.0 °F - 59.0 °F 73% 30.16 in 10.0 mi Calm Calm - N/A   Clear
9:54 AM 75.0 °F - 61.0 °F 62% 30.16 in 10.0 mi Calm Calm - N/A   Clear
10:54 AM 79.0 °F - 63.0 °F 58% 30.16 in 10.0 mi Calm Calm - N/A   Clear
11:54 AM 81.0 °F 81.7 °F 61.0 °F 50% 30.14 in 10.0 mi Calm Calm - N/A   Clear
12:54 PM 84.0 °F 83.0 °F 55.9 °F 38% 30.13 in 10.0 mi Variable 3.5 mph - N/A   Clear
1:54 PM 84.0 °F 83.0 °F 55.9 °F 38% 30.12 in 10.0 mi Variable 3.5 mph - N/A   Mostly Cloudy
2:54 PM 84.0 °F 83.5 °F 57.9 °F 41% 30.11 in 10.0 mi ENE 5.8 mph - N/A   Partly Cloudy
3:54 PM 81.0 °F 81.6 °F 60.1 °F 49% 30.10 in 10.0 mi Variable 3.5 mph - N/A   Clear
4:54 PM 82.0 °F 82.4 °F 60.1 °F 47% 30.09 in 10.0 mi SE 6.9 mph - N/A   Mostly Cloudy
5:54 PM 82.0 °F 83.0 °F 62.1 °F 51% 30.09 in 10.0 mi SE 3.5 mph - N/A   Scattered Clouds
6:54 PM 78.1 °F - 64.9 °F 64% 30.09 in 10.0 mi SE 6.9 mph - N/A   Clear
7:54 PM 73.9 °F - 64.9 °F 73% 30.11 in 10.0 mi ESE 4.6 mph - N/A   Partly Cloudy
8:54 PM 69.1 °F - 64.0 °F 84% 30.12 in 10.0 mi NW 3.5 mph - N/A   Mostly Cloudy
9:54 PM 64.9 °F - 64.0 °F 97% 30.13 in 10.0 mi Calm Calm - N/A   Scattered Clouds
10:54 PM 63.0 °F - 62.1 °F 97% 30.12 in 8.0 mi Calm Calm - N/A   Clear
11:54 PM 61.0 °F - 60.1 °F 97% 30.12 in 5.0 mi Calm Calm - N/A   Clear